Date String (YYYY-MM-DD hh:mm:ss) UTC,Instrument flags,Ambient pressure (hPa),Sample flow (lpm),Bypass flow (lpm),Sample temperature (°C),Ambient temperature (°C),ASC tube jacket temperature (°C),LED temperature (°C),Box temperature (°C),Sample RH (%),Span deviation,Mass concentration (μg/m³),Mass concentration (μg/m³),Mass concentration (μg/m³)
DateTimeUTC,F1_M11,P_M11,Q1_M11,Q2_M11,T1_M11,T2_M11,T3_M11,T4_M11,T5_M11,U1_M11,ZSPAN_M11,X0_M11,X2_M11,X1_M11
2023-01-05 19:00:00,,0824.9,5.00,0.00,22.3,20.9,00.0,31.2,24.0,08.5,0000.8,0014.02,0010.21,0009.92
2023-01-05 19:01:00,,0824.8,5.00,0.00,22.3,20.7,00.0,31.2,23.9,08.6,0000.8,0014.09,0010.23,0009.95
2023-01-05 19:02:00,,0824.9,4.99,0.00,22.2,20.4,00.0,31.2,23.8,08.7,0000.3,0014.42,0010.26,0009.98
2023-01-05 19:03:00,,0824.9,5.01,0.00,22.2,20.9,00.0,31.2,23.9,08.6,0000.0,0014.69,0010.33,0010.04
2023-01-05 19:04:00,,0824.9,5.01,0.00,22.3,22.1,00.0,31.1,24.2,08.6,0000.8,0014.83,0010.43,0010.13
2023-01-05 19:05:00,,0824.9,4.99,0.00,22.4,22.5,00.0,31.1,24.3,08.7,0000.2,0015.44,0010.49,0010.18
2023-01-05 19:06:00,,0824.9,5.00,0.00,22.4,22.0,00.0,31.2,24.2,08.6,0000.0,0015.57,0010.55,0010.24
2023-01-05 19:07:00,,0824.9,5.00,0.00,22.4,21.4,00.0,31.2,24.1,08.3,0000.0,0015.58,0010.57,0010.27
2023-01-05 19:08:00,,0824.8,5.01,0.00,22.4,21.1,00.0,31.2,24.0,08.1,0000.0,0015.41,0010.49,0010.22
2023-01-05 19:09:00,,0824.8,5.01,0.00,22.3,21.0,00.0,31.2,24.0,08.0,0000.0,0015.47,0010.32,0010.07
2023-01-05 19:10:00,,0824.7,5.00,0.00,22.3,21.0,00.0,31.2,24.0,08.1,0000.0,0015.53,0010.23,0009.95
2023-01-05 19:11:00,,0824.9,5.01,0.00,22.3,21.0,00.0,31.2,24.0,08.4,0000.0,0015.49,0010.17,0009.89
2023-01-05 19:12:00,,0824.9,4.99,0.00,22.3,21.0,00.0,31.2,24.0,08.9,0000.0,0015.44,0010.13,0009.85
2023-01-05 19:13:00,,0824.7,5.00,0.00,22.3,21.0,00.0,31.2,24.0,08.7,0000.0,0015.08,0010.07,0009.78
2023-01-05 19:14:00,,0824.6,5.00,0.00,22.3,21.0,00.0,31.2,24.0,08.7,0000.0,0014.77,0010.00,0009.73
2023-01-05 19:15:00,,0824.7,5.00,0.00,22.3,21.0,00.0,31.2,24.0,08.9,0000.0,0014.68,0009.93,0009.67
2023-01-05 19:16:00,,0824.7,5.00,0.00,22.3,21.1,00.0,31.2,24.0,09.1,0000.0,0013.97,0009.86,0009.60
2023-01-05 19:17:00,,0824.8,5.00,0.00,22.3,21.0,00.0,31.1,24.0,08.9,0000.0,0013.66,0009.77,0009.52
2023-01-05 19:18:00,,0824.7,5.00,0.00,22.3,21.0,00.0,31.1,24.0,08.7,0000.0,0013.80,0009.70,0009.44
2023-01-05 19:19:00,,0824.6,5.00,0.00,22.3,21.1,00.0,31.1,24.0,08.4,0000.0,0013.75,0009.67,0009.39
2023-01-05 19:20:00,,0824.5,5.01,0.00,22.3,21.1,00.0,31.1,24.0,08.3,0000.0,0013.83,0009.76,0009.46
2023-01-05 19:21:00,,0824.6,4.99,0.00,22.3,21.1,00.0,31.1,24.0,08.4,0000.0,0014.47,0009.86,0009.56
2023-01-05 19:22:00,,0824.6,5.01,0.00,22.3,21.0,00.0,31.1,24.0,08.5,0000.0,0014.50,0009.90,0009.59
2023-01-05 19:23:00,,0824.4,4.99,0.00,22.3,21.0,00.0,31.1,24.0,08.5,0000.0,0014.51,0009.92,0009.61
2023-01-05 19:24:00,,0824.6,4.99,0.00,22.3,21.0,00.0,31.1,24.0,08.5,0000.0,0014.55,0009.93,0009.61
2023-01-05 19:25:00,,0824.4,5.00,0.00,22.3,21.1,00.0,31.1,24.0,08.5,0000.0,0014.80,0009.94,0009.61
2023-01-05 19:26:00,,0824.4,5.00,0.00,22.3,22.0,00.0,31.1,24.2,08.5,0000.0,0014.90,0009.97,0009.63
2023-01-05 19:27:00,,0824.5,5.00,0.00,22.5,22.9,00.0,31.1,24.5,08.5,0000.0,0015.12,0010.05,0009.67
2023-01-05 19:28:00,,0824.4,5.00,0.00,22.5,22.7,00.0,31.2,24.5,08.5,-000.0,0015.26,0010.13,0009.70
2023-01-05 19:29:00,,0824.4,4.98,0.00,22.6,22.3,00.0,31.2,24.5,08.5,-000.9,0015.68,0010.24,0009.78
2023-01-05 19:30:00,,0824.4,4.99,0.00,22.6,22.0,00.0,31.2,24.4,08.4,-001.1,0016.11,0010.36,0009.86
2023-01-05 19:31:00,,0824.3,5.00,0.00,22.5,21.7,00.0,31.2,24.3,08.3,-001.5,0016.12,0010.48,0009.96
2023-01-05 19:32:00,,0824.3,5.00,0.00,22.5,21.5,00.0,31.3,24.3,08.3,-000.9,0015.32,0010.47,0009.96
2023-01-05 19:33:00,,0824.4,5.00,0.00,22.5,21.3,00.0,31.3,24.2,08.5,-000.6,0015.59,0010.59,0010.02
2023-01-05 19:34:00,,0824.3,5.00,0.00,22.5,21.2,00.0,31.3,24.2,08.7,-000.6,0016.49,0010.79,0010.15
2023-01-05 19:35:00,,0824.3,5.00,0.00,22.5,21.1,00.0,31.3,24.2,09.3,-000.5,0017.62,0011.21,0010.49
2023-01-05 19:36:00,,0824.2,5.00,0.00,22.4,21.0,00.0,31.3,24.1,09.4,-000.3,0018.20,0011.68,0010.85
2023-01-05 19:37:00,,0824.2,4.99,0.00,22.4,20.8,00.0,31.3,24.0,09.2,0000.7,0019.45,0012.10,0011.14
2023-01-05 19:38:00,,0824.2,4.99,0.00,22.3,20.7,00.0,31.2,23.9,08.9,0000.5,0020.01,0012.23,0011.23
2023-01-05 19:39:00,,0824.3,5.00,0.00,22.3,20.6,00.0,31.2,23.9,09.3,0000.8,0021.65,0012.51,0011.43
2023-01-05 19:40:00,,0824.2,5.01,0.00,22.2,20.6,00.0,31.2,23.9,09.5,0001.3,0022.14,0012.89,0011.72
2023-01-05 19:41:00,,0824.1,5.01,0.00,22.2,20.7,00.0,31.2,23.9,09.2,0001.2,0022.31,0013.23,0011.97
2023-01-05 19:42:00,,0824.0,5.00,0.00,22.2,20.7,00.0,31.2,23.9,09.0,0001.4,0022.67,0013.45,0012.15
2023-01-05 19:43:00,,0824.0,4.99,0.00,22.2,20.8,00.0,31.2,23.9,09.1,0001.5,0023.15,0013.76,0012.38
2023-01-05 19:44:00,,0823.9,5.00,0.00,22.2,20.8,00.0,31.1,23.9,09.6,0001.2,0024.36,0014.30,0012.78
2023-01-05 19:45:00,,0824.0,5.00,0.00,22.2,20.8,00.0,31.1,23.9,09.1,0000.8,0024.77,0014.49,0012.93
2023-01-05 19:46:00,,0824.0,5.00,0.00,22.2,20.9,00.0,31.1,23.9,08.4,0001.0,0023.52,0014.02,0012.50
2023-01-05 19:47:00,,0824.0,5.01,0.00,22.3,21.6,00.0,31.1,24.1,08.3,0001.1,0022.48,0013.37,0011.96
2023-01-05 19:48:00,,0824.0,5.00,0.00,22.4,22.7,00.0,31.1,24.4,08.1,0000.7,0021.03,0012.75,0011.46
2023-01-05 19:49:00,,0824.0,4.99,0.00,22.5,22.9,00.0,31.1,24.5,08.9,0001.1,0020.62,0012.68,0011.41
2023-01-05 19:50:00,,0824.0,5.00,0.00,22.5,22.5,00.0,31.2,24.5,09.3,0001.2,0019.68,0012.75,0011.53
2023-01-05 19:51:00,,0824.0,5.00,0.00,22.5,22.1,00.0,31.2,24.4,08.6,0000.7,0019.53,0012.37,0011.21
2023-01-05 19:52:00,,0823.9,4.99,0.00,22.5,21.9,00.0,31.2,24.3,08.4,0001.1,0019.14,0011.92,0010.84
2023-01-05 19:53:00,,0823.9,4.99,0.00,22.5,21.6,00.0,31.2,24.3,08.7,0001.2,0019.00,0011.77,0010.70
2023-01-05 19:54:00,,0823.9,5.00,0.00,22.5,21.5,00.0,31.3,24.3,08.2,0001.3,0019.11,0011.45,0010.39
2023-01-05 19:55:00,,0824.0,5.01,0.00,22.5,21.4,00.0,31.3,24.3,07.5,0001.4,0017.31,0010.43,0009.55
2023-01-05 19:56:00,,0823.8,5.01,0.00,22.5,21.3,00.0,31.3,24.2,07.4,0001.4,0015.48,0009.54,0008.83
2023-01-05 19:57:00,,0823.8,4.99,0.00,22.5,21.3,00.0,31.3,24.2,07.4,0001.1,0014.95,0009.16,0008.49
2023-01-05 19:58:00,,0823.7,4.99,0.00,22.5,21.2,00.0,31.3,24.2,09.0,0000.3,0015.07,0009.23,0008.53
2023-01-05 19:59:00,,0823.7,5.00,0.00,22.4,21.0,00.0,31.3,24.1,09.8,0000.2,0015.77,0009.60,0008.86
